Regional Weather Roundup
Issued by NWS Spokane, WA

Home | Current Version | Previous Version | Text Only | Print | Product List | Glossary On
Versions: 1 2 3 4 5 6 7 8 9 10 11 12 13 14 15 16 17 18 19 20 21 22 23 24 25 26 27 28 29 30 31 32 33 34 35 36 37 38 39 40 41 42 43 44 45 46 47 48 49 50
000
NZUS01 KOTX 261105
RWROTX
EASTERN WASHINGTON/NORTHERN IDAHO ROUNDUP
NATIONAL WEATHER SERVICE, SPOKANE WA
300 AM PST FRI DEC 26 2014

Note: "fair" indicated few or no clouds below 12,000 feet with no
significant weather and/or obstructions to visibility.

...NORTHEAST WASHINGTON AND NORTHERN IDAHO PANHANDLE...

CITY           SKY/WX    TMP DP  RH WIND       PRES   REMARKS
SPOKANE INTL   PTCLDY    25  23  92 CALM      30.12R
SPOKANE DOWNTO FOG       28  26  92 W3        30.15R VSB 1/2
COEUR D ALENE  CLEAR     27  25  93 CALM      30.11S
DEER PARK      FOG       26  25  96 CALM      30.14R VSB 1/4
SANDPOINT      CLEAR     25  25 100 CALM      30.13R

...SOUTHEAST WASHINGTON AND SOUTHERN IDAHO PANHANDLE...

CITY           SKY/WX    TMP DP  RH WIND       PRES   REMARKS
WALLA WALLA    CLEAR     34  30  85 S7        30.22R WCI  28
PULLMAN/MOSCOW CLOUDY    32  29  88 W8        30.14S WCI  25
LEWISTON       CLOUDY    33  30  88 S6        30.17R WCI  28
LOWELL           N/A     33  31  92 CALM      30.18S

...COLUMBIA BASIN...

CITY           SKY/WX    TMP DP  RH WIND       PRES   REMARKS
EPHRATA        CLEAR     35  22  58 N7        30.20R WCI  29
MOSES LAKE     CLEAR     27  23  85 W3        30.21R
TRI CITIES     CLEAR     27  26  96 CALM      30.25R
HERMISTON      CLEAR     27  25  92 CALM      30.24S
PENDLETON      PTCLDY    34  29  82 CALM      30.21R

...EAST SLOPES CASCADES...

CITY           SKY/WX    TMP DP  RH WIND       PRES   REMARKS
THE DALLES     CLEAR     38  34  85 CALM      30.26R
YAKIMA         CLEAR     26  20  77 CALM      30.24R
ELLENSBURG     CLEAR     33  23  66 VRB6      30.20R WCI  28
WENATCHEE      CLEAR     32  23  69 W8        30.23R WCI  25
OMAK           CLEAR     21  18  88 SW3       30.23R

...SOUTHERN BRITISH COLUMBIA...

CITY           SKY/WX    TMP DP  RH WIND       PRES   REMARKS

...WESTERN MONTANA...

CITY           SKY/WX    TMP DP  RH WIND       PRES   REMARKS
MISSOULA       CLOUDY    26  22  84 CALM      30.06S

...NEIGHBORING CITIES...

CITY           SKY/WX    TMP DP  RH WIND       PRES   REMARKS
SEATTLE        CLOUDY    39  36  89 E5        30.33R



USA.gov is the U.S. government's official web portal to all federal, state and local government web resources and services.